GW1111 Weather Reports


time (UTC)temp
C
wind
direction
speed
KPH
gust
KPH
rain 1hr
cm
rain 24hr
cm
rain mn
cm
humidity
%
barometer
mb
20260507171723 15 334 0.0 0.0 0.00 0.00 0.00 68 1014.7
20260507171219 15 136 0.0 0.0 0.00 0.00 0.00 71 1014.8
20260507170157 15 129 0.0 0.0 0.00 0.00 0.00 68 1014.7
20260507164724 14 323 0.0 0.0 0.00 0.00 0.00 69 1014.8
20260507163724 14 323 0.0 0.0 0.00 0.00 0.00 69 1014.9
20260507162724 14 348 0.0 0.0 0.00 0.00 0.00 72 1015.0
20260507161724 14 324 0.0 0.0 0.00 0.00 0.00 71 1014.9
20260507160724 15 0 0.0 0.0 0.00 0.00 0.00 70 1015.0
20260507155724 15 312 0.0 0.0 0.00 0.00 0.00 68 1015.1
20260507154725 15 95 0.0 0.0 0.00 0.00 0.00 69 1014.9
20260507153725 15 145 0.0 0.0 0.00 0.00 0.00 70 1015.0
20260507152728 15 346 0.0 0.0 0.00 0.00 0.00 65 1015.1
20260507152208 15 267 0.0 0.0 0.00 0.00 0.00 63 1015.1
20260507151153 15 213 0.0 0.0 0.00 0.00 0.00 67 1015.2
20260507145721 15 214 0.0 0.0 0.00 0.00 0.00 64 1015.1
20260507144722 15 142 0.0 0.0 0.00 0.00 0.00 63 1015.3
20260507143722 15 72 0.0 0.0 0.00 0.00 0.00 62 1015.3
20260507143201 15 331 0.0 0.0 0.00 0.00 0.00 66 1015.4
20260507141723 15 0 0.0 0.0 0.00 0.00 0.00 62 1015.4
20260507140720 15 148 0.0 0.0 0.00 0.00 0.00 62 1015.4
20260507135720 15 109 0.0 0.0 0.00 0.00 0.00 65 1015.6
20260507134723 16 321 0.0 0.0 0.00 0.00 0.00 63 1015.6
20260507133719 15 234 0.0 0.0 0.00 0.00 0.00 63 1015.6
20260507132720 15 305 0.0 0.0 0.00 0.00 0.00 62 1015.7
20260507131723 15 331 0.0 0.0 0.00 0.00 0.00 63 1015.7
20260507130718 15 315 0.0 0.0 0.00 0.00 0.00 64 1015.7
20260507125721 14 312 0.0 0.0 0.00 0.00 0.00 62 1015.8
20260507124718 15 197 0.0 0.0 0.00 0.00 0.00 63 1015.6
20260507123718 15 290 0.0 0.0 0.00 0.00 0.00 62 1015.7
20260507122717 15 270 0.0 0.0 0.00 0.00 0.00 64 1015.7
20260507122203 15 275 0.0 0.0 0.00 0.00 0.00 65 1015.8
20260507120718 15 17 0.0 0.0 0.00 0.00 0.00 63 1015.8
20260507120157 15 5 0.0 0.0 0.00 0.00 0.00 68 1015.8
20260507114717 15 112 0.0 0.0 0.00 0.00 0.00 61 1015.7
20260507113718 15 263 0.0 0.0 0.00 0.00 0.00 63 1015.7
20260507112717 15 297 0.0 0.0 0.00 0.00 0.00 66 1015.9
20260507111717 15 106 0.0 0.0 0.00 0.00 0.00 64 1016.0
20260507111635 13 320 0.0 0.0 0.00 0.00 0.00 66 1016.1
20260507105717 13 158 0.0 0.0 0.00 0.00 0.00 68 1016.2
20260507104719 12 47 0.0 0.0 0.00 0.00 0.00 73 1016.2
20260507103717 13 342 0.0 0.0 0.00 0.00 0.00 70 1016.2
20260507102718 12 233 0.0 0.0 0.00 0.00 0.00 72 1016.1
20260507101715 12 315 0.0 0.0 0.00 0.00 0.00 70 1016.3
20260507100716 12 269 0.0 0.0 0.00 0.00 0.00 74 1016.3
20260507095716 12 331 0.0 0.0 0.00 0.00 0.00 73 1016.3
20260507094714 12 63 0.0 0.0 0.00 0.00 0.00 76 1016.4
20260507094209 12 306 0.0 0.0 0.00 0.00 0.00 77 1016.3
20260507093158 12 265 0.0 0.0 0.00 0.00 0.00 78 1016.3
20260507091715 11 32 0.0 0.0 0.00 0.00 0.00 76 1016.3
20260507090713 11 66 0.0 0.0 0.00 0.00 0.00 76 1016.2
20260507085714 11 38 0.0 0.0 0.00 0.00 0.00 78 1016.2
20260507084715 11 211 0.0 0.0 0.00 0.00 0.00 77 1016.2
20260507083714 11 63 0.0 0.0 0.00 0.00 0.00 78 1016.2
20260507082716 11 282 0.0 0.0 0.00 0.00 0.00 78 1016.2
20260507081713 11 308 0.0 0.0 0.00 0.00 0.00 78 1016.3
20260507080713 11 310 0.0 0.0 0.00 0.00 0.00 80 1016.2
20260507075711 10 32 0.0 0.0 0.00 0.00 0.00 81 1016.1
20260507074709 10 326 0.0 0.0 0.00 0.00 0.00 80 1016.1
20260507073709 10 322 0.0 0.0 0.00 0.00 0.00 82 1016.0
20260507072709 10 5 0.0 0.0 0.00 0.00 0.00 86 1015.9
20260507071710 10 318 0.0 0.0 0.00 0.00 0.00 87 1015.9
20260507070714 10 318 0.0 0.0 0.00 0.00 0.00 88 1015.8
20260507065710 10 318 0.0 0.0 0.00 0.00 0.00 90 1015.8
20260507064710 10 318 0.0 0.0 0.00 0.00 0.00 92 1015.8
20260507063708 9 318 0.0 0.0 0.00 0.00 0.00 93 1015.7
20260507062708 9 318 0.0 0.0 0.00 0.00 0.00 93 1015.7
20260507061709 9 318 0.0 0.0 0.00 0.00 0.00 93 1015.6
20260507060710 8 318 0.0 0.0 0.00 0.00 0.00 93 1015.6
20260507060156 8 318 0.0 0.0 0.00 0.00 0.00 94 1015.6
20260507055639 8 318 0.0 0.0 0.00 0.00 0.00 93 1015.7
20260507053704 8 318 0.0 0.0 0.00 0.00 0.00 93 1015.5
20260507052705 8 318 0.0 0.0 0.00 0.00 0.00 94 1015.2
20260507051703 8 318 0.0 0.0 0.00 0.00 0.00 93 1015.2
20260507050702 8 318 0.0 0.0 0.00 0.00 0.00 93 1015.1
20260507045702 8 318 0.0 0.0 0.00 0.00 0.00 93 1015.1
20260507044702 8 318 0.0 0.0 0.00 0.00 0.00 93 1015.0
20260507043704 8 318 0.0 0.0 0.00 0.00 0.00 93 1015.0
20260507042702 8 318 0.0 0.0 0.00 0.00 0.00 93 1014.8
20260507041701 8 318 0.0 0.0 0.00 0.00 0.00 93 1014.8
20260507040659 8 318 0.0 0.0 0.00 0.00 0.00 93 1014.7
20260507035658 8 318 0.0 0.0 0.00 0.00 0.00 93 1014.7
20260507034659 8 318 0.0 0.0 0.00 0.00 0.00 92 1014.7
20260507033658 8 318 0.0 0.0 0.00 0.00 0.00 93 1014.7
20260507033140 8 318 0.0 0.0 0.00 0.00 0.00 92 1014.7
20260507031658 8 318 0.0 0.0 0.00 0.00 0.00 92 1014.7
20260507030700 8 318 0.0 0.0 0.00 0.00 0.00 92 1014.7
20260507025656 8 318 0.0 0.0 0.00 0.00 0.00 92 1014.6
20260507024652 8 318 0.0 0.0 0.00 0.00 0.00 92 1014.5
20260507023654 8 318 0.0 0.0 0.00 0.00 0.00 92 1014.6
20260507023140 8 318 0.0 0.0 0.00 0.00 0.00 92 1014.6
20260507021704 8 318 0.0 0.0 0.00 0.00 0.00 92 1014.5
20260507020655 8 318 0.0 0.0 0.00 0.00 0.00 92 1014.6
20260507020148 8 318 0.0 0.0 0.00 0.00 0.00 92 1014.5
20260507014654 8 318 0.0 0.0 0.00 0.00 0.00 92 1014.4
20260507013653 8 318 0.0 0.0 0.00 0.00 0.00 92 1014.6
20260507012655 8 318 0.0 0.0 0.00 0.00 0.00 92 1014.4
20260507012123 8 318 0.0 0.0 0.00 0.00 0.00 91 1014.3
20260507011621 8 318 0.0 0.0 0.00 0.00 0.00 91 1014.4
20260507005648 8 318 0.0 0.0 0.00 0.00 0.00 91 1014.3
20260507005136 8 318 0.0 0.0 0.00 0.00 0.00 91 1014.2
20260507003649 8 318 0.0 0.0 0.00 0.00 0.00 90 1014.2
20260507002650 8 318 0.0 0.0 0.00 0.00 0.00 90 1014.2
20260507001646 8 318 0.0 0.0 0.00 0.00 0.00 90 1014.3
20260507000653 8 318 0.0 0.0 0.00 0.00 0.00 89 1014.2
20260507000145 9 318 0.0 0.0 0.00 0.00 0.00 89 1014.2
20260506234647 9 318 0.0 0.0 0.00 0.00 0.00 88 1014.2
20260506233646 9 318 0.0 0.0 0.00 0.00 0.00 88 1014.2
20260506232649 9 318 0.0 0.0 0.00 0.00 0.00 87 1014.3
20260506231646 9 318 0.0 0.0 0.00 0.00 0.00 86 1014.3
20260506230645 9 318 0.0 0.0 0.00 0.00 0.00 85 1014.3
20260506225642 9 337 0.0 0.0 0.00 0.00 0.00 85 1014.3
20260506224642 9 298 0.0 0.0 0.00 0.00 0.00 84 1014.3
20260506223643 9 298 0.0 0.0 0.00 0.00 0.00 84 1014.4
20260506222643 9 331 0.0 0.0 0.00 0.00 0.00 84 1014.3
20260506221648 10 332 0.0 0.0 0.00 0.00 0.00 85 1014.2
20260506220641 10 324 0.0 0.0 0.00 0.00 0.00 85 1014.0
20260506215642 10 336 0.0 0.0 0.00 0.00 0.00 85 1014.0
20260506214642 10 331 0.0 0.0 0.00 0.00 0.00 86 1014.0
20260506214128 9 335 0.0 0.0 0.00 0.00 0.00 86 1014.1
20260506212640 9 335 0.0 0.0 0.00 0.00 0.00 85 1014.0
20260506211640 9 335 0.0 0.0 0.00 0.00 0.00 84 1014.0
20260506210640 10 335 0.0 0.0 0.00 0.00 0.00 83 1013.8
20260506205639 10 30 0.0 0.0 0.00 0.00 0.00 82 1013.8
20260506204634 10 43 0.0 0.0 0.00 0.00 0.00 82 1013.7
20260506203635 10 306 0.0 0.0 0.00 0.00 0.00 82 1013.9
20260506202634 10 105 0.0 0.0 0.00 0.00 0.00 82 1013.7
20260506201635 10 20 0.0 0.0 0.00 0.00 0.00 82 1013.7
20260506200635 10 19 0.0 0.0 0.00 0.00 0.00 82 1013.6
20260506195637 10 0 0.0 0.0 0.00 0.00 0.00 82 1013.5
20260506194632 10 355 0.0 0.0 0.00 0.00 0.00 83 1013.4
20260506194111 10 355 0.0 0.0 0.00 0.00 0.00 82 1013.3
20260506192633 10 355 0.0 0.0 0.00 0.00 0.00 81 1013.2
20260506191632 10 340 0.0 0.0 0.00 0.00 0.00 80 1013.0
20260506190634 10 234 0.0 0.0 0.00 0.00 0.00 79 1013.1
20260506185632 10 300 0.0 0.0 0.00 0.00 0.00 79 1013.1
20260506184633 10 325 0.0 0.0 0.00 0.00 0.00 78 1012.9
20260506183634 10 208 0.0 0.0 0.00 0.00 0.00 77 1012.9
20260506182632 10 9 0.0 0.0 0.00 0.00 0.00 78 1012.8
20260506182117 11 238 0.0 0.0 0.00 0.00 0.00 77 1012.8
20260506180636 11 267 0.0 0.0 0.00 0.00 0.00 77 1012.7
20260506175634 11 294 0.0 0.0 0.00 0.00 0.00 76 1012.5
20260506174634 11 19 0.0 0.0 0.00 0.00 0.00 75 1012.5
20260506173634 11 319 0.0 0.0 0.00 0.00 0.00 75 1012.4
20260506172636 11 261 0.0 0.0 0.00 0.00 0.00 75 1012.5
20260506172115 11 57 0.0 0.0 0.00 0.00 0.00 75 1012.3